Regional Weather Roundup
Issued by NWS

Home | Current Version | Previous Version | Text Only | Print | Product List | Glossary Off
Versions: 1 2 3 4 5 6 7 8 9 10 11 12 13 14 15 16 17 18 19 20 21 22 23 24 25 26 27

000
ASUS45 KBOU 252007
RWRCO

WEATHER ROUNDUP FOR COLORADO
NATIONAL WEATHER SERVICE DENVER/BOULDER CO
200 PM MDT SAT MAR 25 2017

NOTE: "FAIR" INDICATES FEW OR NO CLOUDS BELOW 12000 FEET WITH NO
SIGNIFICANT WEATHER AND/OR OBSTRUCTIONS TO VISIBILITY.

COZ001>005-013-030-031-252100-
...NORTHWEST COLORADO...

CITY           SKY/WX    TMP DP  RH WIND       PRES   REMARKS
CRAIG          FAIR      62  20  19 SW13      29.90F
HAYDEN         FAIR      57  18  21 E3        29.92F
MEEKER         FAIR      59  19  21 S10G20    29.92F
MOUNT WERNER   NOT AVBL
STEAMBOAT SPGS FAIR      55  15  21 CALM      29.94F
WALDEN         NOT AVBL
$$

COZ006>008-011-252100-
...WEST CENTRAL VALLEYS...

CITY           SKY/WX    TMP DP  RH WIND       PRES   REMARKS
GRAND JUNCTION FAIR      64  22  20 S9        29.88F
MONTROSE       FAIR      62  19  19 VRB6      29.93F
EAGLE          SUNNY     57  19  23 S5        29.95F
RIFLE          FAIR      61  24  24 W14       29.91F
DELTA          FAIR      66  19  16 N3        29.92F
NUCLA          FAIR      61  21  21 W12       29.98F
$$

COZ017>023-064>068-252100-
...SOUTHWEST COLORADO...

CITY           SKY/WX    TMP DP  RH WIND       PRES   REMARKS
DURANGO        FAIR      56  20  24 VRB3      30.01F
CORTEZ         FAIR      60  19  20 S14G22    29.98F
PAGOSA SPRINGS FAIR      56  18  23 SW7       30.05F
TELLURIDE      PTSUNNY   51  14  22 CALM      30.05
WOLF CREEK PAS FAIR      34   5  29 S21G30    30.22F WCI  22
$$

COZ009-010-012-014-032>034-037-058>063-252100-
...CENTRAL COLORADO...

CITY           SKY/WX    TMP DP  RH WIND       PRES   REMARKS
ASPEN          FAIR      57  21  24 N9        29.96F
BUENA VISTA    FAIR      59  10  14 SE15G22   29.97F
COPPER MTN     NOT AVBL
BERTHOUD PASS  FAIR      32  23  69 SE15G23   30.16F WCI  22
COTTONWOOD PAS FAIR      57  12  17 E10       30.05F
GUNNISON       FAIR      47  27  45 SE5       30.01F
KREMMLING      FAIR      59   9  13 CALM      29.97F
LEADVILLE      FAIR      47  11  23 S9        30.02F
MONARCH PASS   FAIR      39  12  33 SW20      30.26F
SALIDA         FAIR      59  11  15 S9G20     30.04F
SUNLIGHT       FAIR      41  19  42 S12G20    30.12F
WILKERSON PASS FAIR      45  14  29 W3        30.15F
$$

COZ069>075-252100-
...SAN LUIS VALLEY/SANGRE DE CRISTO MOUNTAINS...

CITY           SKY/WX    TMP DP  RH WIND       PRES   REMARKS
ALAMOSA        FAIR      55  29  36 VRB7      30.02F
LA VETA PASS   NOT AVBL
SAGUACHE       FAIR      54  23  30 S10       30.04F
$$

COZ035-036-038>040-252100-
...NORTHERN COLORADO FRONT RANGE...

CITY           SKY/WX    TMP DP  RH WIND       PRES   REMARKS
DENVER INTL AP PTSUNNY   62  20  19 S14       29.92F
DMNS CITY PARK   N/A     63  13  14 SE7G21    29.90F
AURORA         CLOUDY    61  14  15 SE12      29.93F
FRONT RANGE AP PTSUNNY   63  21  20 SE13G18   29.95F
ERIE MUNI ARPT FAIR      62  27  26 CALM      29.92F
BOULDER MUN AP FAIR      59  30  33 E7        29.93F
CENTENNIAL     PTSUNNY   59  21  23 SE12      29.94F
BROOMFIELD     CLOUDY    63  21  20 NE6       29.94F
FORT COLLINS   FAIR      60  29  30 SE7       29.93F
LONGMONT       FAIR      62  31  30 CALM      29.94F
$$

COZ041-046-047-076>085-087-088-252100-
...PIKES PEAK/PALMER DIVIDE AND SOUTHERN FOOTHILLS...

CITY           SKY/WX    TMP DP  RH WIND       PRES   REMARKS
COLO. SPRINGS  PTSUNNY   54  29  38 SE10G17   29.98F
A. F. ACADEMY  FAIR      55  25  32 SE14G21   29.97F
SCHRIEVER AFB  FAIR      54  26  33 SE9G21    29.99F
ELLICOTT         N/A    N/A N/A N/A S13       29.97F
FALCON         FAIR      53  24  33 S14G21    30.01F
FORT CARSON    FAIR      56  27  32 SE13      29.97F
LIMON          FAIR      60  28  29 SE12      29.95F
MONUMENT HILL  FAIR      45  32  61 S10       30.00F
TRINIDAD       FAIR      60  28  29 SE10      29.96F
$$

COZ042>045-048>051-090-091-252100-
...NORTHEAST COLORADO...

CITY           SKY/WX    TMP DP  RH WIND       PRES   REMARKS
GREELEY ARPT   FAIR      62  32  32 S8        29.94F
AKRON          FAIR      59  29  31 SE7       29.94F
BURLINGTON     FAIR      56  30  37 VRB5      29.97F
WRAY           FAIR      59  27  29 CALM      29.96F
STERLING       FAIR      61  32  33 S8        29.93F
HOLYOKE        FAIR      61  32  33 SW5       29.95F
FORT MORGAN    FAIR      62  27  26 SE3       29.94F
$$

COZ086-089-092>099-252100-
...SOUTHEAST COLORADO...

CITY           SKY/WX    TMP DP  RH WIND       PRES   REMARKS
PUEBLO         FAIR      62  36  37 SE13G22   29.94F
LA JUNTA       FAIR      62  33  33 S7        29.95F
LAMAR          FAIR      63  28  26 VRB6      29.94F
SPRINGFIELD      N/A     63  23  21 VRB3      29.95F
$$




USA.gov is the U.S. government's official web portal to all federal, state and local government web resources and services.